Des Moines, IA

8:58 PM CST on February 13, 2016 (GMT -0600)
Des Moines International

Weather History for KDSM - November, 2014

Change the Weather History Date:

Monday, November 3, 2014

  Actual Average Record
Temperature  
Mean Temperature 56 °F 46 °F  
Max Temperature 66 °F 55 °F 76 °F (1978)
Min Temperature 46 °F 37 °F 7 °F (1991)
Degree Days  
Heating Degree Days 9 19  
Month to date heating degree days 53 56  
Since 1 July heating degree days 435 540  
Cooling Degree Days 0 0  
Month to date cooling degree days 0 0  
Year to date cooling degree days 1075 1066  
Growing Degree Days 7 (Base 50)    
Moisture  
Dew Point 45 °F    
Average Humidity 62    
Maximum Humidity 72    
Minimum Humidity 52    
Precipitation  
Precipitation 0.02 in 0.09 in 3.18 in (2003)
Month to date precipitation 0.02 0.26  
Year to date precipitation 40.40 32.67  
Snow  
Snow 0.00 in 0.00 in 2.00 in (1901)
Month to date snowfall 0.0 0.1  
Since 1 July snowfall 0.0 0.5  
Since 1 September snowfall 0.0 0.5  
Snow Depth 0.00 in    
Sea Level Pressure  
Sea Level Pressure 29.89 in    
Wind  
Wind Speed 15 mph (SSW)    
Max Wind Speed 28 mph    
Max Gust Speed 33 mph    
Visibility 10 miles    
Events Rain    
T = Trace of Precipitation, MM = Missing Value Source: NWS Daily Summary

Daily Weather History Graph

Daily Weather History Graph

Search for Another Location

Airport or City:

Trip Planner

Search our weather history database for the weather conditions in past years. The results will help you decide how hot, cold, wet, or windy it might be!

Date:

Astronomy

Nov. 03, 2014 Rise Set
Actual Time 6:48 AM CST 5:06 PM CST
Civil Twilight 6:19 AM CST 5:35 PM CST
Nautical Twilight 5:47 AM CST 6:08 PM CST
Astronomical Twilight 5:14 AM CST 6:41 PM CST
Moon 3:18 PM CST (11/3) 2:57 AM CST (11/3)
Length of Visible Light 11h 15m
Length of Day
10h 18m
Waxing Gibbous, 87% of the Moon is Illuminated
Nov 3
Waxing Gibbous
Nov 6
Full
Nov 14
Last Quarter
Nov 22
New
Nov 29
First Quarter

Hourly Weather History & Observations

Time (CST) Temp. Dew Point Humidity Pressure Visibility Wind Dir Wind Speed Gust Speed Precip Events Conditions
12:54 AM 46.9 °F 34.0 °F 61% 29.97 in 10.0 mi SSE 10.4 mph - N/A   Partly Cloudy
1:54 AM 46.9 °F 34.0 °F 61% 29.96 in 10.0 mi SSE 9.2 mph - N/A   Partly Cloudy
2:54 AM 46.9 °F 35.1 °F 63% 29.94 in 10.0 mi SSE 10.4 mph - N/A   Scattered Clouds
3:54 AM 50.0 °F 37.0 °F 61% 29.92 in 10.0 mi South 10.4 mph - N/A   Scattered Clouds
4:54 AM 50.0 °F 37.0 °F 61% 29.92 in 10.0 mi South 11.5 mph - N/A   Scattered Clouds
5:54 AM 50.0 °F 37.4 °F 62% 29.92 in 10.0 mi South 10.4 mph - N/A   Scattered Clouds
6:54 AM 51.1 °F 39.0 °F 63% 29.92 in 10.0 mi South 12.7 mph - N/A   Mostly Cloudy
7:54 AM 53.1 °F 39.9 °F 61% 29.94 in 10.0 mi SSW 16.1 mph - N/A   Overcast
8:54 AM 53.1 °F 43.0 °F 69% 29.93 in 10.0 mi SSW 10.4 mph - 0.01 in   Overcast
9:54 AM 55.9 °F 43.0 °F 62% 29.93 in 10.0 mi SSW 15.0 mph - 0.00 in   Overcast
10:54 AM 60.1 °F 44.1 °F 55% 29.91 in 10.0 mi SSW 18.4 mph 25.3 mph N/A   Overcast
11:54 AM 63.0 °F 45.0 °F 52% 29.88 in 10.0 mi SSW 20.7 mph 27.6 mph N/A   Overcast
12:54 PM 63.0 °F 46.0 °F 54% 29.88 in 10.0 mi SSW 21.9 mph 27.6 mph N/A   Overcast
1:54 PM 64.9 °F 48.0 °F 54% 29.86 in 10.0 mi SSW 15.0 mph - N/A   Overcast
2:54 PM 64.9 °F 48.9 °F 56% 29.85 in 10.0 mi SSW 13.8 mph 25.3 mph N/A   Overcast
3:54 PM 64.9 °F 50.0 °F 58% 29.86 in 10.0 mi SW 17.3 mph 25.3 mph 0.00 in Rain Light Rain
4:54 PM 64.9 °F 50.0 °F 58% 29.85 in 10.0 mi South 10.4 mph - 0.00 in   Overcast
5:54 PM 64.0 °F 50.0 °F 60% 29.85 in 10.0 mi South 11.5 mph - N/A   Overcast
6:54 PM 64.9 °F 52.0 °F 63% 29.85 in 10.0 mi SSW 17.3 mph 28.8 mph 0.00 in Rain Light Rain
7:54 PM 64.0 °F 53.1 °F 67% 29.84 in 10.0 mi SSW 20.7 mph 26.5 mph 0.00 in   Overcast
8:54 PM 63.0 °F 53.1 °F 70% 29.85 in 10.0 mi SSW 19.6 mph 27.6 mph N/A   Overcast
9:26 PM 63.0 °F 54.0 °F 72% 29.85 in 10.0 mi SSW 17.3 mph - N/A   Overcast
9:54 PM 63.0 °F 54.0 °F 72% 29.85 in 10.0 mi SW 17.3 mph 27.6 mph N/A   Overcast
10:54 PM 55.0 °F 51.1 °F 86% 29.89 in 8.0 mi NW 23.0 mph 29.9 mph 0.01 in Rain Light Rain
11:17 PM 54.0 °F 50.0 °F 86% 29.90 in 10.0 mi NW 19.6 mph 28.8 mph 0.00 in   Overcast
11:54 PM 52.0 °F 45.0 °F 77% 29.92 in 10.0 mi NNW 18.4 mph 32.2 mph 0.00 in   Overcast